| time (UTC) | temp C | wind direction | speed KPH | gust KPH | rain 1hr cm | rain 24hr cm | rain mn cm | humidity % | barometer mb |
| 20260507041119 | 10 | 255 | 20.9 | 32.2 | 0.00 | 0.00 | 0.00 | 99 | 1005.0 |
| 20260507040619 | 10 | 254 | 19.3 | 30.6 | 0.00 | 0.00 | 0.00 | 99 | 1004.9 |
| 20260507040119 | 10 | 253 | 17.7 | 29.0 | 0.00 | 0.00 | 0.00 | 99 | 1004.8 |
| 20260507035619 | 10 | 250 | 17.7 | 30.6 | 0.00 | 0.00 | 0.00 | 99 | 1004.9 |
| 20260507035119 | 10 | 254 | 19.3 | 30.6 | 0.00 | 0.00 | 0.00 | 99 | 1004.9 |
| 20260507034619 | 10 | 256 | 17.7 | 30.6 | 0.00 | 0.00 | 0.00 | 99 | 1005.0 |
| 20260507034119 | 10 | 251 | 17.7 | 30.6 | 0.00 | 0.00 | 0.00 | 99 | 1005.0 |
| 20260507033619 | 10 | 267 | 14.5 | 29.0 | 0.00 | 0.00 | 0.00 | 99 | 1005.1 |
| 20260507033119 | 10 | 258 | 19.3 | 33.8 | 0.00 | 0.00 | 0.00 | 99 | 1005.1 |
| 20260507032619 | 10 | 259 | 17.7 | 33.8 | 0.00 | 0.00 | 0.00 | 99 | |
| 20260507032119 | 10 | 265 | 14.5 | 27.4 | 0.00 | 0.00 | 0.00 | 99 | 1005.1 |
| 20260507031619 | 10 | 265 | 11.3 | 27.4 | 0.00 | 0.00 | 0.00 | 99 | 1005.0 |
| 20260507031119 | 10 | 258 | 14.5 | 27.4 | 0.00 | 0.00 | 0.00 | 99 | 1004.8 |
| 20260507030619 | 10 | 250 | 12.9 | 30.6 | 0.00 | 0.00 | 0.00 | 99 | 1004.9 |
| 20260507030119 | 10 | 129 | 12.9 | 33.8 | 0.00 | 0.00 | 0.00 | 99 | 1004.9 |
| 20260507025619 | 10 | 37 | 9.7 | 24.1 | 0.00 | 0.00 | 0.00 | 99 | 1004.9 |
| 20260507025119 | 10 | 49 | 11.3 | 27.4 | 0.00 | 0.00 | 0.00 | 99 | 1004.7 |
| 20260507024619 | 10 | 51 | 11.3 | 24.1 | 0.00 | 0.00 | 0.00 | 99 | 1004.9 |
| 20260507024119 | 10 | 68 | 0.0 | 32.2 | 0.00 | 0.00 | 0.00 | 99 | 1004.9 |
| 20260507023619 | 10 | 42 | 9.7 | 37.0 | 0.00 | 0.00 | 0.00 | 99 | 1004.9 |
| 20260507023119 | 10 | 49 | 11.3 | 20.9 | 0.00 | 0.00 | 0.00 | 99 | 1004.9 |
| 20260507022619 | 10 | 75 | 9.7 | 30.6 | 0.00 | 0.00 | 0.00 | 99 | 1004.8 |
| 20260507022119 | 10 | 325 | 12.9 | 33.8 | 0.00 | 0.00 | 0.00 | 99 | 1005.0 |
| 20260507021619 | 10 | 70 | 11.3 | 27.4 | 0.00 | 0.00 | 0.00 | 99 | 1005.2 |
| 20260507021119 | 10 | 335 | 9.7 | 24.1 | 0.00 | 0.00 | 0.00 | 99 | 1005.1 |
| 20260507020619 | 10 | 52 | 9.7 | 25.7 | 0.00 | 0.00 | 0.00 | 99 | 1005.2 |
| 20260507020119 | 10 | 46 | 11.3 | 32.2 | 0.00 | 0.00 | 0.00 | 99 | 1003.8 |
| 20260507015619 | 10 | 39 | 9.7 | 25.7 | 0.00 | 0.00 | 0.00 | 99 | 1005.3 |
| 20260507015119 | 10 | 32 | 12.9 | 27.4 | 0.00 | 0.00 | 0.00 | 99 | 1005.3 |
| 20260507014636 | 10 | 57 | 11.3 | 27.4 | 0.00 | 0.00 | 0.00 | 99 | 1005.3 |
| 20260507014119 | 10 | 43 | 9.7 | 29.0 | 0.00 | 0.00 | 0.00 | 98 | 1005.4 |
| 20260507013619 | 10 | 48 | 8.0 | 25.7 | 0.00 | 0.00 | 0.00 | 98 | 1005.3 |
| 20260507013119 | 10 | 52 | 9.7 | 30.6 | 0.00 | 0.00 | 0.00 | 98 | 1005.4 |
| 20260507012619 | 10 | 50 | 9.7 | 25.7 | 0.00 | 0.00 | 0.00 | 98 | 1005.4 |
| 20260507012119 | 10 | 41 | 9.7 | 25.7 | 0.00 | 0.00 | 0.00 | 98 | 1005.5 |
| 20260507011619 | 10 | 67 | 9.7 | 24.1 | 0.00 | 0.00 | 0.00 | 98 | 1005.4 |
| 20260507011119 | 10 | 69 | 9.7 | 32.2 | 0.00 | 0.00 | 0.00 | 98 | 1005.5 |
| 20260507010619 | 10 | 65 | 11.3 | 25.7 | 0.00 | 0.00 | 0.00 | 98 | 1005.7 |
| 20260507010119 | 10 | 61 | 9.7 | 27.4 | 0.00 | 0.00 | 0.00 | 98 | 1005.7 |
| 20260507005619 | 10 | 48 | 11.3 | 29.0 | 0.00 | 0.00 | 0.00 | 98 | 1005.8 |
| 20260507005119 | 10 | 45 | 11.3 | 25.7 | 0.00 | 0.00 | 0.00 | 98 | 1005.6 |
| 20260507004619 | 10 | 56 | 11.3 | 32.2 | 0.00 | 0.00 | 0.00 | 98 | 1005.6 |
| 20260507004119 | 10 | 57 | 12.9 | 35.4 | 0.00 | 0.00 | 0.00 | 98 | 1005.5 |
| 20260507003619 | 10 | 44 | 12.9 | 35.4 | 0.00 | 0.00 | 0.00 | 98 | 1005.3 |
| 20260507003119 | 10 | 37 | 11.3 | 29.0 | 0.00 | 0.00 | 0.00 | 98 | 1005.4 |
| 20260507002619 | 10 | 62 | 11.3 | 30.6 | 0.00 | 0.00 | 0.00 | 98 | 1005.4 |
| 20260507002119 | 10 | 55 | 11.3 | 24.1 | 0.00 | 0.00 | 0.00 | 98 | 1005.5 |
| 20260507001618 | 10 | 57 | 11.3 | 30.6 | 0.00 | 0.00 | 0.00 | 98 | 1005.5 |
| 20260507001119 | 10 | 37 | 9.7 | 27.4 | 0.00 | 0.00 | 0.00 | 98 | 1005.5 |
| 20260507000619 | 10 | 69 | 9.7 | 32.2 | 0.00 | 0.00 | 0.00 | 98 | 1005.3 |
| 20260507000136 | 10 | 205 | 14.5 | 30.6 | 0.00 | 0.00 | 0.00 | 98 | 1005.4 |
| 20260506235618 | 10 | 103 | 11.3 | 30.6 | 0.00 | 0.00 | 0.00 | 98 | 1005.4 |
| 20260506235118 | 10 | 69 | 12.9 | 40.2 | 0.00 | 0.00 | 0.00 | 98 | 1005.5 |
| 20260506234619 | 10 | 105 | 12.9 | 33.8 | 0.00 | 0.00 | 0.00 | 98 | 1005.5 |
| 20260506234119 | 10 | 43 | 14.5 | 33.8 | 0.00 | 0.00 | 0.00 | 98 | 1003.9 |
| 20260506233618 | 11 | 68 | 9.7 | 43.5 | 0.00 | 0.00 | 0.00 | 98 | |
| 20260506233118 | 11 | 196 | 17.7 | 45.1 | 0.00 | 0.00 | 0.00 | 98 | 1004.9 |
| 20260506232518 | 11 | 38 | 12.9 | 40.2 | 0.00 | 0.00 | 0.00 | 98 | 1005.1 |
| 20260506232019 | 11 | 258 | 0.0 | 41.8 | 0.00 | 0.00 | 0.00 | 98 | 1004.9 |
| 20260506231519 | 10 | 169 | 19.3 | 48.3 | 0.00 | 0.00 | 0.00 | 98 | 1005.0 |
| 20260506231019 | 11 | 203 | 14.5 | 43.5 | 0.00 | 0.00 | 0.00 | 98 | 1005.1 |
| 20260506230518 | 11 | 265 | 16.1 | 41.8 | 0.00 | 0.00 | 0.00 | 98 | 1005.1 |
| 20260506230019 | 11 | 147 | 16.1 | 41.8 | 0.00 | 0.00 | 0.00 | 98 | 1004.9 |
| 20260506225518 | 10 | 145 | 16.1 | 40.2 | 0.00 | 0.00 | 0.00 | 98 | 1004.9 |
| 20260506225018 | 10 | 153 | 14.5 | 37.0 | 0.00 | 0.00 | 0.00 | 98 | 1005.0 |
| 20260506224518 | 10 | 169 | 16.1 | 41.8 | 0.00 | 0.00 | 0.00 | 98 | 1005.0 |
| 20260506223918 | 10 | 168 | 0.0 | 41.8 | 0.00 | 0.00 | 0.00 | 98 | 1004.9 |
| 20260506223419 | 10 | 163 | 0.0 | 40.2 | 0.00 | 0.00 | 0.00 | 97 | 1005.0 |
| 20260506222918 | 10 | 170 | 16.1 | 46.7 | 0.00 | 0.00 | 0.00 | 97 | 1005.0 |
| 20260506222418 | 10 | 170 | 19.3 | 43.5 | 0.00 | 0.00 | 0.00 | 97 | 1004.9 |
| 20260506221818 | 10 | 172 | 24.1 | 45.1 | 0.00 | 0.00 | 0.00 | 97 | 1004.8 |
| 20260506221318 | 10 | 170 | 25.7 | 48.3 | 0.00 | 0.00 | 0.00 | 97 | 1004.9 |
| 20260506220818 | 10 | 175 | 0.0 | 43.5 | 0.00 | 0.00 | 0.00 | 97 | 1005.0 |
| 20260506220318 | 10 | 172 | 0.0 | 40.2 | 0.00 | 0.00 | 0.00 | 96 | 1005.2 |
| 20260506215818 | 10 | 168 | 0.0 | 46.7 | 0.00 | 0.00 | 0.00 | 96 | 1005.0 |
| 20260506215318 | 11 | 176 | 0.0 | 49.9 | 0.00 | 0.00 | 0.00 | 96 | 1005.1 |
| 20260506214818 | 11 | 176 | 0.0 | 49.9 | 0.00 | 0.00 | 0.00 | 96 | 1005.3 |
| 20260506214318 | 11 | 185 | 0.0 | 48.3 | 0.00 | 0.00 | 0.00 | 95 | 1005.1 |
| 20260506213818 | 11 | 198 | 0.0 | 48.3 | 0.00 | 0.00 | 0.00 | 95 | 1005.1 |
| 20260506213318 | 11 | 209 | 0.0 | 51.5 | 0.00 | 0.00 | 0.00 | 95 | 1005.4 |
| 20260506212818 | 11 | 176 | 0.0 | 46.7 | 0.00 | 0.00 | 0.00 | 95 | 1005.4 |
| 20260506212318 | 11 | 185 | 0.0 | 49.9 | 0.00 | 0.00 | 0.00 | 94 | 1005.5 |
| 20260506211818 | 11 | 180 | 24.1 | 48.3 | 0.00 | 0.00 | 0.00 | 94 | 1005.4 |
| 20260506211318 | 11 | 168 | 0.0 | 45.1 | 0.00 | 0.00 | 0.00 | 94 | 1005.3 |
| 20260506210818 | 11 | 167 | 0.0 | 48.3 | 0.00 | 0.00 | 0.00 | 94 | 1005.5 |
| 20260506210318 | 11 | 169 | 25.7 | 45.1 | 0.00 | 0.00 | 0.00 | 94 | 1005.3 |
| 20260506205818 | 11 | 177 | 29.0 | 49.9 | 0.00 | 0.00 | 0.00 | 94 | 1005.2 |
| 20260506205318 | 11 | 176 | 33.8 | 51.5 | 0.00 | 0.00 | 0.00 | 94 | 1005.1 |
| 20260506204818 | 11 | 177 | 30.6 | 54.7 | 0.00 | 0.00 | 0.00 | 94 | 1003.9 |
| 20260506204318 | 11 | 177 | 32.2 | 51.5 | 0.00 | 0.00 | 0.00 | 95 | 1005.3 |
| 20260506203818 | 11 | 177 | 35.4 | 56.3 | 0.00 | 0.00 | 0.00 | 95 | 1005.4 |
| 20260506203318 | 11 | 181 | 33.8 | 57.9 | 0.00 | 0.00 | 0.00 | 95 | 1005.0 |
| 20260506202718 | 11 | 174 | 24.1 | 46.7 | 0.00 | 0.00 | 0.00 | 95 | 1005.7 |
| 20260506202218 | 11 | 176 | 25.7 | 57.9 | 0.00 | 0.00 | 0.00 | 95 | 1005.5 |
| 20260506201718 | 11 | 176 | 29.0 | 49.9 | 0.00 | 0.00 | 0.00 | 94 | 1005.5 |
| 20260506201218 | 11 | 178 | 32.2 | 49.9 | 0.00 | 0.00 | 0.00 | 95 | 1005.4 |
| 20260506200718 | 11 | 177 | 27.4 | 46.7 | 0.00 | 0.00 | 0.00 | 94 | 1005.7 |
| 20260506200218 | 11 | 176 | 24.1 | 48.3 | 0.00 | 0.00 | 0.00 | 94 | 1005.8 |
| 20260506195718 | 11 | 174 | 0.0 | 48.3 | 0.00 | 0.00 | 0.00 | 94 | 1005.9 |
| 20260506195218 | 11 | 177 | 0.0 | 40.2 | 0.00 | 0.00 | 0.00 | 94 | 1006.0 |
| 20260506194718 | 11 | 167 | 20.9 | 43.5 | 0.00 | 0.00 | 0.00 | 94 | 1006.3 |
| 20260506194218 | 11 | 176 | 20.9 | 41.8 | 0.00 | 0.00 | 0.00 | 94 | 1006.2 |
| 20260506193718 | 11 | 167 | 24.1 | 43.5 | 0.00 | 0.00 | 0.00 | 94 | 1005.9 |
| 20260506193218 | 11 | 179 | 25.7 | 45.1 | 0.00 | 0.00 | 0.00 | 93 | 1006.3 |
| 20260506192718 | 11 | 167 | 20.9 | 45.1 | 0.00 | 0.00 | 0.00 | 93 | 1006.3 |
| 20260506192218 | 11 | 178 | 22.5 | 48.3 | 0.00 | 0.00 | 0.00 | 93 | 1006.2 |
| 20260506191718 | 11 | 176 | 0.0 | 46.7 | 0.00 | 0.00 | 0.00 | 93 | 1006.4 |
| 20260506191218 | 11 | 177 | 20.9 | 43.5 | 0.00 | 0.00 | 0.00 | 93 | 1006.4 |
| 20260506190718 | 11 | 174 | 0.0 | 46.7 | 0.00 | 0.00 | 0.00 | 93 | 1006.5 |
| 20260506190218 | 11 | 175 | 0.0 | 41.8 | 0.00 | 0.00 | 0.00 | 93 | 1006.7 |
| 20260506185718 | 11 | 170 | 19.3 | 43.5 | 0.00 | 0.00 | 0.00 | 93 | 1006.5 |
| 20260506185218 | 11 | 170 | 0.0 | 41.8 | 0.00 | 0.00 | 0.00 | 92 | 1006.8 |
| 20260506184718 | 11 | 171 | 0.0 | 45.1 | 0.00 | 0.00 | 0.00 | 92 | 1006.6 |
| 20260506184218 | 11 | 174 | 0.0 | 45.1 | 0.00 | 0.00 | 0.00 | 92 | 1006.7 |
| 20260506183718 | 11 | 187 | 0.0 | 41.8 | 0.00 | 0.00 | 0.00 | 92 | 1006.8 |
| 20260506183218 | 11 | 176 | 22.5 | 48.3 | 0.00 | 0.00 | 0.00 | 92 | 1006.8 |
| 20260506182718 | 11 | 178 | 0.0 | 48.3 | 0.00 | 0.00 | 0.00 | 92 | 1005.2 |
| 20260506182217 | 11 | 169 | 22.5 | 45.1 | 0.00 | 0.00 | 0.00 | 92 | 1006.7 |
| 20260506181717 | 11 | 181 | 0.0 | 46.7 | 0.00 | 0.00 | 0.00 | 91 | 1006.7 |
| 20260506181218 | 11 | 170 | 29.0 | 46.7 | 0.00 | 0.00 | 0.00 | 91 | 1006.7 |
| 20260506180718 | 12 | 171 | 0.0 | 51.5 | 0.00 | 0.00 | 0.00 | 91 | 1006.7 |
| 20260506180217 | 12 | 176 | 0.0 | 46.7 | 0.00 | 0.00 | 0.00 | 91 | 1007.1 |
| 20260506175717 | 12 | 165 | 0.0 | 43.5 | 0.00 | 0.00 | 0.00 | 91 | 1007.0 |
| 20260506175217 | 12 | 160 | 0.0 | 45.1 | 0.00 | 0.00 | 0.00 | 90 | 1007.4 |
| 20260506174717 | 12 | 159 | 0.0 | 54.7 | 0.00 | 0.00 | 0.00 | 90 | 1007.3 |
| 20260506174217 | 12 | 168 | 0.0 | 46.7 | 0.00 | 0.00 | 0.00 | 90 | 1007.7 |
| 20260506173720 | 12 | 182 | 0.0 | 48.3 | 0.00 | 0.00 | 0.00 | 91 | 1007.5 |
| 20260506173217 | 12 | 164 | 22.5 | 59.5 | 0.00 | 0.00 | 0.00 | 91 | 1007.7 |
| 20260506172717 | 12 | 173 | 0.0 | 48.3 | 0.00 | 0.00 | 0.00 | 91 | 1007.7 |
| 20260506172217 | 11 | 173 | 0.0 | 53.1 | 0.00 | 0.00 | 0.00 | 91 | 1007.7 |
| 20260506171718 | 11 | 171 | 0.0 | 45.1 | 0.00 | 0.00 | 0.00 | 91 | 1007.6 |
| 20260506171217 | 11 | 172 | 0.0 | 48.3 | 0.00 | 0.00 | 0.00 | 91 | 1007.7 |
| 20260506170717 | 12 | 173 | 0.0 | 49.9 | 0.00 | 0.00 | 0.00 | 90 | 1007.9 |
| 20260506170217 | 12 | 167 | 0.0 | 46.7 | 0.00 | 0.00 | 0.00 | 90 | 1007.8 |
| 20260506165717 | 12 | 179 | 22.5 | 43.5 | 0.00 | 0.00 | 0.00 | 89 | 1007.9 |
| 20260506165217 | 12 | 170 | 0.0 | 48.3 | 0.00 | 0.00 | 0.00 | 90 | 1007.7 |
| 20260506164717 | 12 | 177 | 22.5 | 45.1 | 0.00 | 0.00 | 0.00 | 90 | 1008.1 |
| 20260506164217 | 12 | 175 | 25.7 | 46.7 | 0.00 | 0.00 | 0.00 | 89 | 1008.1 |
| 20260506163717 | 12 | 174 | 20.9 | 46.7 | 0.00 | 0.00 | 0.00 | 89 | 1008.0 |
| 20260506163217 | 12 | 167 | 0.0 | 43.5 | 0.00 | 0.00 | 0.00 | 89 | 1008.2 |
| 20260506162717 | 12 | 174 | 0.0 | 48.3 | 0.00 | 0.00 | 0.00 | 90 | 1008.3 |
| 20260506162217 | 12 | 174 | 19.3 | 46.7 | 0.00 | 0.00 | 0.00 | 90 | 1008.2 |
| 20260506161717 | 12 | 167 | 20.9 | 46.7 | 0.00 | 0.00 | 0.00 | 90 | 1008.1 |
| 20260506161217 | 12 | 173 | 0.0 | 48.3 | 0.00 | 0.00 | 0.00 | 90 | 1008.2 |
| 20260506160717 | 12 | 167 | 0.0 | 54.7 | 0.00 | 0.00 | 0.00 | 90 | |
| 20260506160217 | 12 | 174 | 22.5 | 46.7 | 0.00 | 0.00 | 0.00 | 91 | 1008.2 |
| 20260506155717 | 12 | 163 | 0.0 | 53.1 | 0.00 | 0.00 | 0.00 | 90 | 1008.5 |
| 20260506155217 | 12 | 165 | 0.0 | 48.3 | 0.00 | 0.00 | 0.00 | 90 | 1008.5 |
| 20260506154717 | 12 | 170 | 0.0 | 46.7 | 0.00 | 0.00 | 0.00 | 89 | 1008.7 |
| 20260506154217 | 12 | 180 | 0.0 | 45.1 | 0.00 | 0.00 | 0.00 | 89 | 1009.0 |
| 20260506153717 | 12 | 173 | 0.0 | 46.7 | 0.00 | 0.00 | 0.00 | 89 | 1008.8 |
| 20260506153217 | 12 | 166 | 0.0 | 45.1 | 0.00 | 0.00 | 0.00 | 89 | 1008.9 |
| 20260506152717 | 12 | 165 | 0.0 | 43.5 | 0.00 | 0.00 | 0.00 | 89 | 1008.9 |
| 20260506152217 | 12 | 169 | 0.0 | 46.7 | 0.00 | 0.00 | 0.00 | 89 | 1008.8 |
| 20260506151732 | 12 | 167 | 20.9 | 48.3 | 0.00 | 0.00 | 0.00 | 90 | 1008.8 |
| 20260506151217 | 12 | 170 | 0.0 | 48.3 | 0.00 | 0.00 | 0.00 | 90 | 1008.9 |
| 20260506150717 | 12 | 172 | 0.0 | 46.7 | 0.00 | 0.00 | 0.00 | 90 | 1009.0 |
| 20260506150217 | 12 | 171 | 0.0 | 46.7 | 0.00 | 0.00 | 0.00 | 90 | 1009.1 |
| 20260506145717 | 12 | 170 | 0.0 | 46.7 | 0.00 | 0.00 | 0.00 | 88 | 1008.9 |
| 20260506145217 | 12 | 174 | 0.0 | 46.7 | 0.00 | 0.00 | 0.00 | 89 | 1009.0 |
| 20260506144717 | 12 | 175 | 22.5 | 43.5 | 0.00 | 0.00 | 0.00 | 90 | 1008.8 |
| 20260506144217 | 12 | 169 | 0.0 | 43.5 | 0.00 | 0.00 | 0.00 | 90 | 1008.8 |
| 20260506143717 | 12 | 173 | 0.0 | 46.7 | 0.00 | 0.00 | 0.00 | 90 | 1008.9 |
| 20260506143217 | 12 | 169 | 0.0 | 43.5 | 0.00 | 0.00 | 0.00 | 91 | 1008.5 |
| 20260506142717 | 11 | 174 | 0.0 | 46.7 | 0.00 | 0.00 | 0.00 | 90 | 1008.7 |
| 20260506142117 | 12 | 163 | 0.0 | 46.7 | 0.00 | 0.00 | 0.00 | 89 | 1009.0 |
| 20260506141616 | 12 | 176 | 0.0 | 45.1 | 0.00 | 0.00 | 0.00 | 87 | 1008.9 |
| 20260506141117 | 13 | 192 | 0.0 | 43.5 | 0.00 | 0.00 | 0.00 | 88 | 1009.0 |
| 20260506140616 | 12 | 211 | 19.3 | 38.6 | 0.00 | 0.00 | 0.00 | 90 | 1009.2 |
| 20260506140116 | 12 | 172 | 16.1 | 40.2 | 0.00 | 0.00 | 0.00 | 88 | 1009.0 |
| 20260506135617 | 13 | 183 | 17.7 | 37.0 | 0.00 | 0.00 | 0.00 | 87 | 1009.0 |
| 20260506135117 | 13 | 181 | 0.0 | 38.6 | 0.00 | 0.00 | 0.00 | 86 | 1009.1 |
| 20260506134617 | 13 | 179 | 16.1 | 38.6 | 0.00 | 0.00 | 0.00 | 86 | 1009.3 |
| 20260506134116 | 13 | 246 | 16.1 | 37.0 | 0.00 | 0.00 | 0.00 | 87 | 1009.4 |
| 20260506133616 | 13 | 331 | 12.9 | 32.2 | 0.00 | 0.00 | 0.00 | 85 | 1009.6 |
| 20260506133133 | 13 | 57 | 11.3 | 30.6 | 0.00 | 0.00 | 0.00 | 85 | |
| 20260506132617 | 13 | 39 | 12.9 | 33.8 | 0.00 | 0.00 | 0.00 | 87 | 1009.7 |
| 20260506132116 | 13 | 228 | 17.7 | 35.4 | 0.00 | 0.00 | 0.00 | 86 | 1009.8 |
| 20260506131616 | 13 | 238 | 20.9 | 35.4 | 0.00 | 0.00 | 0.00 | 86 | 1009.7 |
| 20260506131116 | 13 | 138 | 12.9 | 30.6 | 0.00 | 0.00 | 0.00 | 86 | 1009.7 |
| 20260506130616 | 13 | 39 | 14.5 | 41.8 | 0.00 | 0.00 | 0.00 | 87 | 1009.6 |
| 20260506130116 | 13 | 144 | 16.1 | 45.1 | 0.00 | 0.00 | 0.00 | 87 | 1009.4 |
| 20260506125616 | 13 | 171 | 0.0 | 41.8 | 0.00 | 0.00 | 0.00 | 88 | 1009.3 |
| 20260506125116 | 13 | 183 | 17.7 | 46.7 | 0.00 | 0.00 | 0.00 | 88 | 1007.8 |
| 20260506124616 | 13 | 228 | 20.9 | 45.1 | 0.00 | 0.00 | 0.00 | 88 | 1009.3 |
| 20260506124116 | 13 | 192 | 22.5 | 43.5 | 0.00 | 0.00 | 0.00 | 88 | 1009.3 |
| 20260506123616 | 13 | 168 | 16.1 | 40.2 | 0.00 | 0.00 | 0.00 | 88 | 1009.4 |
| 20260506123116 | 12 | 213 | 19.3 | 40.2 | 0.00 | 0.00 | 0.00 | 88 | 1009.4 |
| 20260506122616 | 12 | 204 | 14.5 | 38.6 | 0.00 | 0.00 | 0.00 | 88 | |
| 20260506122116 | 12 | 243 | 17.7 | 35.4 | 0.00 | 0.00 | 0.00 | 89 | 1009.5 |
| 20260506121616 | -17 | 198 | 17.7 | 40.2 | 0.00 | 0.00 | 0.00 | 1009.4 | |
| 20260506121116 | 12 | 333 | 12.9 | 35.4 | 0.00 | 0.00 | 0.00 | 90 | 1009.5 |
| 20260506120616 | 12 | 228 | 14.5 | 38.6 | 0.00 | 0.00 | 0.00 | 89 | 1009.6 |
| 20260506120116 | 12 | 161 | 14.5 | 32.2 | 0.00 | 0.00 | 0.00 | 90 | 1009.7 |
| 20260506115616 | 12 | 250 | 14.5 | 33.8 | 0.00 | 0.00 | 0.00 | 90 | 1009.7 |
| 20260506115116 | 12 | 128 | 14.5 | 33.8 | 0.00 | 0.00 | 0.00 | 91 | 1009.7 |
| 20260506114616 | 12 | 244 | 14.5 | 35.4 | 0.00 | 0.00 | 0.00 | 91 | 1009.7 |
| 20260506114116 | 12 | 99 | 16.1 | 32.2 | 0.00 | 0.00 | 0.00 | 92 | 1009.7 |
| 20260506113616 | 12 | 338 | 12.9 | 33.8 | 0.00 | 0.00 | 0.00 | 93 | |
| 20260506113116 | 11 | 130 | 14.5 | 35.4 | 0.00 | 0.00 | 0.00 | 94 | 1009.8 |
| 20260506112616 | 11 | 211 | 19.3 | 41.8 | 0.00 | 0.00 | 0.00 | 95 | 1009.7 |
| 20260506112116 | 11 | 156 | 14.5 | 38.6 | 0.00 | 0.00 | 0.00 | 96 | 1009.6 |
| 20260506111616 | 11 | 193 | 16.1 | 46.7 | 0.00 | 0.00 | 0.00 | 96 | 1009.7 |
| 20260506111116 | 11 | 213 | 0.0 | 46.7 | 0.00 | 0.00 | 0.00 | 96 | 1009.6 |
| 20260506110616 | 10 | 184 | 14.5 | 48.3 | 0.00 | 0.00 | 0.00 | 96 | 1009.4 |
| 20260506110116 | 10 | 199 | 17.7 | 45.1 | 0.00 | 0.00 | 0.00 | 96 | 1009.3 |
| 20260506105616 | 10 | 208 | 19.3 | 45.1 | 0.00 | 0.00 | 0.00 | 96 | 1009.5 |
| 20260506105116 | 10 | 193 | 17.7 | 45.1 | 0.00 | 0.00 | 0.00 | 96 | 1009.5 |
| 20260506104616 | 10 | 214 | 16.1 | 33.8 | 0.00 | 0.00 | 0.00 | 96 | 1009.7 |
| 20260506104116 | 11 | 321 | 14.5 | 32.2 | 0.00 | 0.00 | 0.00 | 96 | 1009.7 |
| 20260506103616 | 11 | 341 | 12.9 | 32.2 | 0.00 | 0.00 | 0.00 | 97 | 1009.7 |
| 20260506103133 | 10 | 180 | 11.3 | 37.0 | 0.00 | 0.00 | 0.00 | 96 | 1009.7 |
| 20260506102616 | 10 | 50 | 14.5 | 30.6 | 0.00 | 0.00 | 0.00 | 97 | 1009.7 |
| 20260506102116 | 10 | 310 | 14.5 | 38.6 | 0.00 | 0.00 | 0.00 | 97 | 1009.6 |
| 20260506101616 | 10 | 228 | 17.7 | 33.8 | 0.00 | 0.00 | 0.00 | 97 | 1009.5 |
| 20260506101116 | 10 | 337 | 14.5 | 32.2 | 0.00 | 0.00 | 0.00 | 97 | 1009.5 |
| 20260506100616 | 10 | 260 | 12.9 | 35.4 | 0.00 | 0.00 | 0.00 | 97 | 1009.6 |
| 20260506100116 | 10 | 186 | 16.1 | 37.0 | 0.00 | 0.00 | 0.00 | 97 | 1009.6 |
| 20260506095616 | 10 | 227 | 0.0 | 35.4 | 0.00 | 0.00 | 0.00 | 97 | 1009.6 |
| 20260506095116 | 10 | 257 | 19.3 | 43.5 | 0.00 | 0.00 | 0.00 | 97 | 1009.3 |
| 20260506094616 | 10 | 199 | 0.0 | 41.8 | 0.00 | 0.00 | 0.00 | 97 | 1009.1 |
| 20260506094116 | 10 | 212 | 22.5 | 51.5 | 0.00 | 0.00 | 0.00 | 97 | 1009.1 |
| 20260506093616 | 10 | 214 | 20.9 | 43.5 | 0.00 | 0.00 | 0.00 | 97 | 1009.0 |
| 20260506093116 | 10 | 194 | 0.0 | 43.5 | 0.00 | 0.00 | 0.00 | 97 | 1009.1 |
| 20260506092616 | 10 | 160 | 0.0 | 48.3 | 0.00 | 0.00 | 0.00 | 97 | 1009.2 |
| 20260506092116 | 10 | 257 | 17.7 | 40.2 | 0.00 | 0.00 | 0.00 | 97 | 1009.5 |
| 20260506091615 | 10 | 274 | 0.0 | 32.2 | 0.00 | 0.00 | 0.00 | 97 | 1009.8 |
| 20260506091115 | 10 | 230 | 20.9 | 43.5 | 0.00 | 0.00 | 0.00 | 97 | 1009.8 |
| 20260506090615 | 10 | 229 | 19.3 | 35.4 | 0.00 | 0.00 | 0.00 | 97 | 1009.8 |
| 20260506090116 | 10 | 271 | 12.9 | 33.8 | 0.00 | 0.00 | 0.00 | 97 | 1009.7 |
| 20260506085616 | 10 | 49 | 16.1 | 40.2 | 0.00 | 0.00 | 0.00 | 97 | 1009.7 |
| 20260506085115 | 10 | 349 | 12.9 | 40.2 | 0.00 | 0.00 | 0.00 | 97 | 1009.7 |
| 20260506084616 | 10 | 248 | 16.1 | 46.7 | 0.00 | 0.00 | 0.00 | 97 | 1009.7 |
| 20260506084115 | 10 | 209 | 19.3 | 37.0 | 0.00 | 0.00 | 0.00 | 97 | 1009.5 |
| 20260506083616 | 10 | 119 | 0.0 | 41.8 | 0.00 | 0.00 | 0.00 | 97 | 1009.6 |
| 20260506083116 | 10 | 216 | 24.1 | 49.9 | 0.00 | 0.00 | 0.00 | 97 | 1009.6 |
| 20260506082616 | 10 | 186 | 0.0 | 45.1 | 0.00 | 0.00 | 0.00 | 97 | 1009.0 |
| 20260506082116 | 10 | 215 | 0.0 | 46.7 | 0.00 | 0.00 | 0.00 | 97 | 1009.4 |
| 20260506081615 | 10 | 206 | 22.5 | 37.0 | 0.00 | 0.00 | 0.00 | 97 | 1009.3 |
| 20260506081115 | 10 | 101 | 0.0 | 40.2 | 0.00 | 0.00 | 0.00 | 97 | 1009.6 |
| 20260506080615 | 10 | 236 | 0.0 | 41.8 | 0.00 | 0.00 | 0.00 | 97 | 1009.5 |
| 20260506080116 | 10 | 204 | 0.0 | 45.1 | 0.00 | 0.00 | 0.00 | 97 | 1009.6 |
| 20260506073115 | 10 | 203 | 22.5 | 43.5 | 0.00 | 0.00 | 0.00 | 97 | 1009.6 |
| 20260506072615 | 10 | 208 | 19.3 | 43.5 | 0.00 | 0.00 | 0.00 | 97 | 1009.7 |
| 20260506072115 | 10 | 182 | 22.5 | 41.8 | 0.00 | 0.00 | 0.00 | 97 | 1009.5 |
| 20260506071615 | 10 | 181 | 24.1 | 45.1 | 0.00 | 0.00 | 0.00 | 97 | 1009.5 |
| 20260506071115 | 10 | 187 | 0.0 | 46.7 | 0.00 | 0.00 | 0.00 | 97 | 1009.6 |
| 20260506070615 | 10 | 197 | 25.7 | 48.3 | 0.00 | 0.00 | 0.00 | 97 | 1009.2 |
| 20260506070115 | 10 | 202 | 0.0 | 46.7 | 0.00 | 0.00 | 0.00 | 97 | 1009.6 |
| 20260506062115 | 10 | 223 | 25.7 | 46.7 | 0.00 | 0.00 | 0.00 | 96 | 1009.2 |
| 20260506061615 | 10 | 199 | 0.0 | 46.7 | 0.00 | 0.00 | 0.00 | 95 | 1009.3 |
| 20260506061115 | 10 | 193 | 24.1 | 51.5 | 0.00 | 0.00 | 0.00 | 96 | 1009.1 |
| 20260506060615 | 10 | 186 | 20.9 | 48.3 | 0.00 | 0.00 | 0.00 | 96 | 1009.0 |
| 20260506060115 | 10 | 212 | 0.0 | 53.1 | 0.00 | 0.00 | 0.00 | 95 | 1009.1 |
| 20260506051115 | 10 | 212 | 24.1 | 46.7 | 0.00 | 0.00 | 0.00 | 96 | 1009.2 |
| 20260506050615 | 10 | 179 | 19.3 | 48.3 | 0.00 | 0.00 | 0.00 | 96 | 1009.6 |
| 20260506050115 | 10 | 222 | 0.0 | 48.3 | 0.00 | 0.00 | 0.00 | 96 | 1009.5 |
| 20260506045115 | 10 | 208 | 24.1 | 48.3 | 0.00 | 0.00 | 0.00 | 96 | 1009.5 |
| 20260506044615 | 10 | 183 | 0.0 | 46.7 | 0.00 | 0.00 | 0.00 | 96 | 1009.8 |
| 20260506044115 | 10 | 166 | 0.0 | 46.7 | 0.00 | 0.00 | 0.00 | 96 | 1009.8 |
| 20260506043615 | 10 | 106 | 0.0 | 48.3 | 0.00 | 0.00 | 0.00 | 96 | 1009.8 |
| 20260506043115 | 10 | 264 | 0.0 | 45.1 | 0.00 | 0.00 | 0.00 | 96 | 1009.8 |
| 20260506042615 | 10 | 215 | 0.0 | 45.1 | 0.00 | 0.00 | 0.00 | 96 | 1009.8 |
| 20260506042115 | 10 | 182 | 0.0 | 45.1 | 0.00 | 0.00 | 0.00 | 96 | 1009.9 |
| 20260506041615 | 10 | 225 | 20.9 | 45.1 | 0.00 | 0.00 | 0.00 | 96 | 1009.8 |